Bovina Center, New York
Current Conditions -  °F | °C
As of 8:35 AM on Saturday 20 Dec 2014 (Local Time) from KMSV Reporting Station
Overcast Overcast  
Wind Chill: 16°   Ceiling: 1300
Heat Index: 23°   Visibility: 10mi
Dew Point: 19°   Wind: 6mph
Humidity: 86%   Direction: 360°N
Pressure: 30.22"   Gusts: NA
Location:  42.26°N, 74.78°W
Report Text: KMSV 201335Z AUTO 36005KT 10SM OVC013 M05/M07 A3022 RMK AO1
Loading
Personal Weather Stations






























Interactive Weather Map New forecast layout! Learn more

10-Day Weather Forecast

Advertisements
Track Severe Weather on mobile